Miscellaneous Local Product
Issued by NWS Hastings, NE

Home | Current Version | Previous Version | Graphics & Text | Print | Product List | Glossary On
Versions: 1 2 3 4 5 6 7 8 9 10 11 12 13 14 15 16 17 18 19 20 21 22 23 24 25 26 27 28 29 30 31 32 33 34 35 36 37 38 39 40 41 42 43 44 45 46 47 48 49 50
000
AXUS43 KGID 211602
MISGRI

GID CWA HOURLY WEATHER ROUNDUP
NATIONAL WEATHER SERVICE HASTINGS NE
1100 AM CDT MON AUG 21 2017

NOTE: "FAIR" INDICATES FEW OR NO CLOUDS BELOW 12,000 FEET WITH NO
SIGNIFICANT WEATHER AND/OR OBSTRUCTIONS TO VISIBILITY.

...SOUTH CENTRAL NEBRASKA...

CITY           SKY/WX    TMP DP  RH WIND       PRES   REMARKS
GRAND ISLAND   MOSUNNY   81  71  71 S10       29.96S
HASTINGS       PTSUNNY   81  66  60 S13G25    29.97S
KEARNEY        MOSUNNY   81  67  62 S14       29.96S
ORD            SUNNY     79  67  66 S13G18    29.90F
YORK           MOSUNNY   77  72  83 S12       29.98F
AURORA         MOSUNNY   82  70  68 S13       29.97F
LEXINGTON      SUNNY     80  67  64 S12       29.95S
HOLDREGE       PTSUNNY   78  63  59 S12       29.97S
HEBRON         CLOUDY    84  67  55 S10G16    29.97F

...NEBRASKA PANHANDLE...

CITY           SKY/WX    TMP DP  RH WIND       PRES   REMARKS
CHADRON        PTSUNNY   73  63  70 NW8       30.05R
ALLIANCE       PTSUNNY   73  64  73 N14       30.04R
SCOTTSBLUFF    SUNNY     75  56  51 W10       30.07R
SIDNEY         SUNNY     83  52  34 N15       30.06R

...WESTERN AND NORTH CENTRAL NEBRASKA...

CITY           SKY/WX    TMP DP  RH WIND       PRES   REMARKS
VALENTINE      CLOUDY    72  67  84 SW7       29.98R HAZE
AINSWORTH      FOG       70  70 100 SE5       29.97R VSB 3/4
ONEILL         CLOUDY    71  71  98 SE6       29.95S
BROKEN BOW     SUNNY     79  69  71 SW10      29.93F
IMPERIAL       SUNNY     80  64  58 VRB3      29.97F
NORTH PLATTE   SUNNY     80  69  69 S9        29.95F
MCCOOK         MOSUNNY   82  64  54 S13       29.96S

...EASTERN NEBRASKA...

CITY           SKY/WX    TMP DP  RH WIND       PRES   REMARKS
NORFOLK        SUNNY     78  69  73 S18G31    29.93F
SO SIOUX CITY  PTSUNNY   77  69  76 S18G25    29.95F
TEKAMAH        MOSUNNY   76  67  73 SE20G28   29.97F
COLUMBUS       MOSUNNY   77  70  79 SE16      29.96F
ALBION         MOSUNNY   78  72  82 S12       29.94F
OMAHA EPPLEY   PTSUNNY   78  66  66 SE25G31   30.00F
OFFUTT AFB     PTSUNNY   76  66  69 SE17G24   30.01F
MILLARD        MOSUNNY   77  68  72 SE21      30.01S
LINCOLN        CLOUDY    76  69  79 SE18      30.00F
NEBRASKA CITY  CLOUDY    74  70  85 SE10G21   30.04F
BEATRICE       PTSUNNY   81  70  70 SE9       30.01S
FALLS CITY     LGT RAIN  74  71  91 E14G23    30.05F

...NORTHERN KANSAS...

CITY           SKY/WX    TMP DP  RH WIND       PRES   REMARKS
GOODLAND       PTSUNNY   77  62  59 S9        30.00F
HILL CITY      CLOUDY    80  66  62 S13G22    30.00S
NORTON         SUNNY     82  55  39 S17       29.96
PHILLIPSBURG   SUNNY     84  63  48 S13G21    29.97S
SMITH CENTER   PTSUNNY   82  64  54 S15G22    29.98F
HAYS           CLOUDY    80  66  62 S14       30.02R
RUSSELL        CLOUDY    82  65  56 S21G26    30.00S
CONCORDIA      CLOUDY    85  66  53 S14       29.98F
SALINA         CLOUDY    82  67  60 S18       30.01R
TOPEKA         PTSUNNY   86  74  67 S10       30.02F HX  94



USA.gov is the U.S. government's official web portal to all federal, state and local government web resources and services.